Skip Page Navigation
NASA JPL Caltech
NASA Logo - Jet Propulsion Laboratory + View the NASA Portal
+ Near-Earth Object (NEO) Program
Search JPL
JPL Home Earth Solar System Stars & Galaxies Technology
JPL Solar System Dynamics
BODIES ORBITS EPHEMERIDES TOOLS PHYSICAL DATA DISCOVERY FAQ SITE MAP
JPL Small-Body Database Browser
Search: [ help ]  
26847 (1992 DG)
Classification: Main-belt Asteroid          SPK-ID: 2026847
Ephemeris | Orbit Diagram | Orbital Elements | Physical Parameters | Discovery Circumstances | Close-Approach Data ]

[ show orbit diagram ]
Orbital Elements at Epoch 2457600.5 (2016-Jul-31.0) TDB
Reference: JPL 16 (heliocentric ecliptic J2000)
 Element Value Uncertainty (1-sigma)   Units 
e .2822232218900155 7.1339e-08  
a 2.714132157362103 3.2152e-08 au
q 1.948141035276072 1.9502e-07 au
i 16.04559982912225 9.2483e-06 deg
node 143.1563884266227 2.9256e-05 deg
peri 107.4024866252026 3.5371e-05 deg
M 104.914297470833 2.4063e-05 deg
tp 2457124.532730524546
(2015-Apr-12.03273052)
0.00010572 JED
period 1633.22083969346
4.47
2.9021e-05
7.946e-08
d
yr
n .2204233446271531 3.9167e-09 deg/d
Q 3.480123279448133 4.1226e-08 au
  Orbit Determination Parameters
   # obs. used (total)      581  
   data-arc span      8675 days (23.75 yr)  
   first obs. used      1992-02-05  
   last obs. used      2015-11-06  
   planetary ephem.      DE431  
   SB-pert. ephem.      SB431-BIG16  
   condition code      0  
   fit RMS      .5868  
   data source      ORB  
   producer      Otto Matic  
   solution date      2015-Nov-30 16:49:13  

Additional Information
 Earth MOID = 1.00158 au 
 Jupiter MOID = 1.90594 au 
 T_jup = 3.249 
[ show covariance matrix ]

Ephemeris | Orbit Diagram | Orbital Elements | Physical Parameters | Discovery Circumstances | Close-Approach Data ]

Physical Parameter Table
Parameter Symbol Value Units Sigma Reference Notes
absolute magnitude H 13.7 mag n/a MPO250469  

26847 (1992 DG)          Discovered 1992-Feb-25 by Ueda, S., Kaneda, H. at Kushiro
Reference: 20010804/Numbers.arcLast Updated: 2004-04-19

[ show close-approach data ]
Alternate Designations
 1992 DG = 2000 AQ189 
Ephemeris | Orbit Diagram | Orbital Elements | Physical Parameters | Discovery Circumstances | Close-Approach Data ]
ABOUT SSD CREDITS/AWARDS PRIVACY/COPYRIGHT GLOSSARY LINKS
FirstGov 2016-Apr-28 19:50 UT
(server date/time)  
NASA Home Page
Site Manager:   Ryan S. Park
Webmaster  Alan B. Chamberlin